Location: Bushrod
(6.3500°N, 10.7833°W)
Time: 08:51:03
(UTC+00:00)

GPS 2-15 Rocket1 - Pass Details

Date: 17 September 2019
Orbit: 624 x 675 km, 19.8° (Epoch: 12 October)

Event Time Altitude Azimuth Distance (km) Brightness Sun altitude
Rises 19:28:31 0° 238° (WSW) 2,888 7.5 -12.4°
Reaches altitude 10° 19:30:56 10° 232° (SW) 1,985 6.4 -13.0°
Maximum altitude 19:35:24 46° 159° (SSE) 839 3.5 -14.1°
Enters shadow 19:37:53 24° 98° (E) 1,307 4.1 -14.7°
